�N����,����,�~����,�C��,���x,�C��,����,���ϕ���,�ő�u�ԕ���,�ő厞����,���˗�,�I�_���x,�n�����x,�ő啗���N��,DTYPE
"22/07/12","00:10",0.0,26.5,81.1,1002.2,332.6,1.1,2.0,328.4,0.00,23.0,26.0,"00:02:16",1
"22/07/12","00:20",0.0,26.5,81.4,1001.7,332.8,1.2,2.1,345.7,0.00,23.1,25.9,"00:19:52",1
"22/07/12","00:30",0.0,26.3,81.7,1002.2,328.9,1.6,2.0,337.4,0.00,23.0,26.0,"00:20:16",1
"22/07/12","00:40",0.0,26.2,81.7,1001.9,343.7,1.3,2.1,336.6,0.00,22.9,25.8,"00:32:56",1
"22/07/12","00:50",0.0,26.3,81.7,1001.7,358.0,1.0,1.8,357.1,0.00,23.0,26.1,"00:46:08",1
"22/07/12","01:00",0.0,26.2,82.1,1001.0,336.7,1.2,2.4,332.9,0.00,22.9,25.9,"00:50:02",1
"22/07/12","01:10",0.0,25.9,82.8,1001.2,287.7,0.8,2.1,341.7,0.00,22.8,26.0,"01:00:08",1
"22/07/12","01:20",0.0,25.8,83.5,1001.5,321.7,2.0,3.7,320.7,0.00,22.8,25.9,"01:10:02",1
"22/07/12","01:30",0.0,25.8,83.8,1001.5,336.2,1.6,3.1,332.8,0.00,22.9,26.0,"01:20:16",1
"22/07/12","01:40",0.0,25.8,84.0,1001.0,335.8,1.3,1.9,342.7,0.00,22.9,25.7,"01:31:52",1
"22/07/12","01:50",0.0,25.8,83.9,1000.5,315.9,1.2,2.4,316.8,0.00,22.9,25.8,"01:49:44",1
"22/07/12","02:00",0.0,25.8,83.7,1001.0,327.4,1.7,3.4,331.9,0.00,22.9,25.9,"01:52:56",1
"22/07/12","02:10",0.0,25.7,83.7,1000.8,103.7,0.5,1.7,339.3,0.00,22.8,25.8,"02:00:08",1
"22/07/12","02:20",0.0,25.6,84.0,1001.2,106.1,0.5,1.0,262.4,0.00,22.7,25.9,"02:18:00",1
"22/07/12","02:30",0.0,25.7,84.3,1001.2,336.5,1.0,1.7,1.7,0.00,22.9,25.6,"02:25:28",1
"22/07/12","02:40",0.0,25.6,84.7,1001.0,291.5,1.1,2.0,310.6,0.00,22.9,25.8,"02:34:48",1
"22/07/12","02:50",0.0,25.5,85.1,1001.0,311.0,1.3,2.2,345.9,0.00,22.9,25.7,"02:45:36",1
"22/07/12","03:00",0.0,25.5,85.3,1000.8,307.9,1.2,2.1,293.7,0.00,22.9,25.7,"02:55:28",1
"22/07/12","03:10",0.0,25.4,85.6,1001.2,283.1,0.6,0.9,292.7,0.00,22.8,25.7,"03:00:48",1
"22/07/12","03:20",0.2,25.4,86.3,1001.2,292.1,1.1,2.6,345.5,0.00,23.0,25.7,"03:10:02",1
"22/07/12","03:30",0.2,25.1,87.1,1001.5,328.6,1.6,2.9,341.0,0.00,22.8,25.5,"03:20:16",1
"22/07/12","03:40",0.8,24.8,88.0,1001.5,316.9,1.0,2.1,339.4,0.00,22.7,25.4,"03:33:20",1
"22/07/12","03:50",1.2,24.5,88.9,1001.2,328.0,1.5,2.2,326.7,0.00,22.6,25.6,"03:41:52",1
"22/07/12","04:00",1.0,24.3,89.5,1001.2,330.6,0.8,1.3,324.3,0.00,22.5,25.5,"03:50:40",1
"22/07/12","04:10",0.8,24.3,90.1,1001.2,319.1,1.0,2.0,330.3,0.00,22.6,25.6,"04:09:28",1
"22/07/12","04:20",0.8,24.1,90.6,1001.5,341.0,0.7,1.3,332.2,0.00,22.5,25.6,"04:10:16",1
"22/07/12","04:30",1.0,23.9,91.0,1001.7,118.7,0.2,1.0,55.5,0.00,22.4,25.4,"04:21:12",1
"22/07/12","04:40",0.8,24.0,91.4,1001.2,121.0,0.5,1.1,124.2,0.00,22.6,25.5,"04:30:08",1
"22/07/12","04:50",0.8,23.8,91.5,1001.5,156.9,0.6,1.4,159.0,0.00,22.4,25.3,"04:41:12",1
"22/07/12","05:00",1.2,23.9,91.8,1001.0,41.6,0.2,0.9,347.8,0.00,22.5,25.4,"04:58:24",1
"22/07/12","05:10",0.6,24.0,92.0,1001.5,10.7,0.7,1.6,5.2,0.00,22.7,25.3,"05:08:32",1
"22/07/12","05:20",0.4,23.8,92.3,1001.7,347.8,0.6,1.3,354.6,0.00,22.5,25.3,"05:10:48",1
"22/07/12","05:30",0.8,23.8,92.6,1001.7,323.1,1.0,1.8,339.4,0.00,22.6,25.5,"05:25:44",1
"22/07/12","05:40",0.2,23.8,92.7,1001.5,345.3,0.8,1.3,326.0,0.00,22.6,25.3,"05:30:48",1
"22/07/12","05:50",0.4,23.7,92.9,1001.9,284.5,0.3,0.9,256.1,0.00,22.5,25.2,"05:49:12",1
"22/07/12","06:00",1.8,23.7,93.1,1001.9,312.7,0.5,1.1,243.7,0.00,22.6,25.3,"05:50:48",1
"22/07/12","06:10",1.8,23.6,93.2,1001.9,356.8,1.0,2.4,341.4,0.00,22.5,25.3,"06:09:12",1
"22/07/12","06:20",3.0,23.4,93.4,1001.7,157.0,0.6,1.4,148.4,0.00,22.3,25.2,"06:15:28",1
"22/07/12","06:30",1.4,23.4,93.6,1002.2,327.2,0.7,1.7,347.0,0.00,22.3,25.2,"06:27:04",1
"22/07/12","06:40",0.4,23.4,93.7,1001.9,319.8,0.7,1.6,343.3,0.00,22.4,25.3,"06:39:28",1
"22/07/12","06:50",0.2,23.5,93.9,1001.9,326.1,1.2,2.0,327.6,0.00,22.5,25.2,"06:42:16",1
"22/07/12","07:00",0.0,23.5,94.0,1002.2,339.8,0.7,1.3,347.5,0.00,22.5,25.1,"06:56:32",1
"22/07/12","07:10",0.0,23.5,94.2,1002.4,348.2,0.3,1.0,356.6,0.00,22.6,25.1,"07:03:04",1
"22/07/12","07:20",0.0,23.5,94.2,1002.2,321.5,0.3,1.1,340.7,0.00,22.6,25.1,"07:12:00",1
"22/07/12","07:30",0.0,23.7,94.3,1002.2,311.9,0.6,1.3,341.8,0.02,22.8,25.1,"07:26:32",1
"22/07/12","07:40",0.0,23.7,94.4,1002.2,326.0,0.7,1.3,316.9,0.02,22.8,25.0,"07:31:28",1
"22/07/12","07:50",0.0,23.8,94.5,1001.9,339.7,0.6,1.2,319.8,0.04,22.9,25.2,"07:49:12",1
"22/07/12","08:00",0.0,24.1,94.6,1001.9,282.9,0.3,0.9,245.9,0.07,23.2,25.0,"07:52:40",1
"22/07/12","08:10",0.0,24.1,94.6,1001.9,296.9,0.7,1.3,331.6,0.08,23.2,25.1,"08:03:20",1
"22/07/12","08:20",0.0,24.3,94.8,1001.5,253.6,0.5,1.2,291.2,0.12,23.5,25.1,"08:10:24",1
"22/07/12","08:30",0.0,25.0,94.7,1001.5,299.5,0.6,1.7,328.8,0.25,24.1,24.9,"08:25:20",1
"22/07/12","08:40",0.0,25.4,94.6,1001.2,247.3,0.6,1.3,237.9,0.18,24.5,25.2,"08:30:40",1
"22/07/12","08:50",0.0,24.9,94.2,1001.2,341.7,0.8,1.6,356.1,0.09,23.9,25.1,"08:45:12",1
"22/07/12","09:00",0.0,24.9,93.9,1001.0,326.1,0.8,2.2,341.2,0.10,23.9,24.8,"08:59:28",1
"22/07/12","09:10",0.0,24.9,93.9,1001.2,324.1,1.0,1.8,345.2,0.10,23.9,25.0,"09:02:40",1
"22/07/12","09:20",0.0,25.1,93.7,1001.2,316.2,0.7,1.3,344.7,0.05,24.1,25.0,"09:11:12",1
"22/07/12","09:30",0.0,25.0,93.6,1001.5,278.2,0.7,1.2,342.1,0.09,23.9,25.1,"09:20:48",1
"22/07/12","09:40",0.0,25.4,93.2,1001.0,233.7,0.3,0.8,264.3,0.11,24.3,25.0,"09:30:24",1
"22/07/12","09:50",0.0,25.3,92.8,1001.5,294.0,0.6,1.2,314.4,0.06,24.1,25.2,"09:44:32",1
"22/07/12","10:00",0.0,25.3,92.5,1001.2,290.1,0.8,1.2,333.4,0.03,24.0,25.1,"09:58:56",1
"22/07/12","10:10",0.0,25.2,92.3,1001.0,271.3,0.8,1.4,244.1,0.04,23.9,25.0,"10:01:36",1
"22/07/12","10:20",0.0,25.2,92.1,1001.2,260.8,0.6,1.3,242.0,0.04,23.9,25.2,"10:19:20",1
"22/07/12","10:30",0.0,25.4,91.9,1001.0,292.3,0.7,1.3,335.2,0.04,24.0,25.0,"10:22:40",1
"22/07/12","10:40",0.0,25.4,91.6,1000.8,250.5,0.7,1.8,234.4,0.03,24.0,25.1,"10:36:48",1
"22/07/12","10:50",0.0,25.3,91.3,1000.8,203.6,0.7,2.0,213.1,0.03,23.8,25.2,"10:49:12",1
"22/07/12","11:00",0.0,25.4,91.4,1001.2,188.1,1.0,2.1,130.8,0.05,23.9,25.2,"10:57:04",1
"22/07/12","11:10",0.0,25.5,91.3,1001.0,176.0,1.0,1.8,170.2,0.09,24.0,25.0,"11:00:40",1
"22/07/12","11:20",0.0,25.5,91.2,1000.8,174.5,1.0,2.0,111.8,0.09,24.0,24.8,"11:13:04",1
"22/07/12","11:30",0.0,25.5,91.1,1000.5,178.6,0.8,1.8,173.5,0.09,24.0,25.0,"11:27:36",1
"22/07/12","11:40",0.0,25.5,91.4,1000.5,175.4,1.0,1.9,139.9,0.06,24.0,25.2,"11:35:44",1
"22/07/12","11:50",0.0,25.2,91.5,1000.5,152.8,1.0,1.4,151.1,0.04,23.8,25.3,"11:40:56",1
"22/07/12","12:00",0.0,25.2,91.6,1000.8,158.6,0.6,1.3,139.5,0.04,23.8,25.4,"11:53:52",1
"22/07/12","12:10",0.0,25.3,91.7,1000.5,202.5,0.7,1.7,201.7,0.02,23.9,25.1,"12:05:20",1
"22/07/12","12:20",0.0,25.4,91.8,1000.5,234.7,0.2,0.8,242.8,0.06,24.0,25.1,"12:14:32",1
"22/07/12","12:30",0.0,25.9,91.8,1000.5,96.5,0.1,0.8,133.1,0.10,24.5,25.1,"12:22:16",1
"22/07/12","12:40",0.0,25.7,91.5,999.8,280.6,0.6,2.4,339.2,0.06,24.3,24.9,"12:37:52",1
"22/07/12","12:50",0.0,25.7,91.5,999.8,344.8,1.1,1.8,337.9,0.03,24.3,25.2,"12:46:00",1
"22/07/12","13:00",0.0,25.8,91.4,1000.3,327.9,1.1,1.8,324.8,0.05,24.3,25.2,"12:55:12",1
"22/07/12","13:10",0.0,25.9,91.3,999.8,333.6,1.1,1.9,339.4,0.10,24.4,25.1,"13:08:48",1
"22/07/12","13:20",0.0,26.7,91.0,1000.0,3.9,0.7,1.9,338.8,0.19,25.1,25.2,"13:11:04",1
"22/07/12","13:30",0.0,26.9,90.2,999.3,85.8,0.5,1.6,152.5,0.14,25.2,25.4,"13:24:32",1
"22/07/12","13:40",0.0,26.9,89.6,999.8,10.5,0.6,1.8,334.6,0.15,25.1,25.1,"13:38:08",1
"22/07/12","13:50",0.0,26.9,88.6,999.6,343.8,0.8,1.9,345.6,0.08,24.9,25.2,"13:40:32",1
"22/07/12","14:00",0.0,26.9,87.7,999.8,334.6,0.6,1.1,347.5,0.06,24.7,25.3,"13:50:56",1
"22/07/12","14:10",0.0,27.0,87.3,999.6,319.5,1.0,1.7,344.4,0.07,24.7,25.2,"14:04:48",1
"22/07/12","14:20",0.0,27.0,86.8,999.6,345.3,0.7,1.7,348.6,0.06,24.7,25.3,"14:18:24",1
"22/07/12","14:30",0.0,27.5,86.8,999.3,311.9,0.6,1.7,343.6,0.11,25.1,25.4,"14:21:44",1
"22/07/12","14:40",0.0,28.1,86.3,998.6,16.0,0.5,1.3,19.2,0.23,25.6,25.4,"14:33:44",1
"22/07/12","14:50",0.0,28.6,84.8,999.1,17.5,0.6,1.4,8.7,0.21,25.8,25.3,"14:42:56",1
"22/07/12","15:00",0.0,28.9,83.2,999.1,25.7,0.5,1.3,341.3,0.27,25.8,25.4,"14:51:04",1
"22/07/12","15:10",0.0,29.7,80.4,999.8,282.0,0.8,1.8,29.4,0.35,26.0,25.4,"15:07:44",1
"22/07/12","15:20",0.0,29.8,77.8,999.8,181.1,1.0,2.2,228.5,0.27,25.5,25.2,"15:18:24",1
"22/07/12","15:30",0.0,29.6,78.5,999.6,143.1,0.8,2.5,131.9,0.17,25.5,25.4,"15:21:12",1
"22/07/12","15:40",0.0,29.2,79.4,999.3,173.8,1.1,1.9,131.7,0.17,25.3,25.4,"15:32:40",1
"22/07/12","15:50",0.0,29.8,78.6,999.8,174.0,0.8,1.9,301.0,0.38,25.7,25.5,"15:48:16",1
"22/07/12","16:00",0.0,29.5,75.7,999.3,232.8,1.6,3.9,236.2,0.13,24.8,25.5,"15:54:48",1
"22/07/12","16:10",0.0,28.8,78.0,998.6,205.2,1.6,2.7,207.2,0.07,24.6,25.6,"16:00:16",1
"22/07/12","16:20",0.2,28.7,78.9,998.4,227.4,1.3,2.4,227.7,0.07,24.7,25.3,"16:13:12",1
"22/07/12","16:30",0.4,28.6,80.9,997.7,237.3,0.8,2.7,223.7,0.08,25.0,25.5,"16:25:44",1
"22/07/12","16:40",0.2,28.1,82.4,998.2,240.3,0.7,1.6,244.4,0.08,24.9,25.4,"16:38:56",1
"22/07/12","16:50",0.0,28.0,84.0,998.4,299.6,0.7,1.6,244.3,0.10,25.1,25.4,"16:47:20",1
"22/07/12","17:00",0.0,27.8,85.2,997.9,326.7,1.0,1.6,324.8,0.08,25.1,25.7,"16:52:48",1
"22/07/12","17:10",0.2,28.0,86.5,998.2,342.3,1.0,1.7,352.0,0.16,25.6,25.4,"17:02:24",1
"22/07/12","17:20",0.0,28.2,85.7,997.7,268.9,1.0,2.2,231.1,0.16,25.6,25.6,"17:15:04",1
"22/07/12","17:30",0.0,27.9,85.3,997.9,245.6,1.2,2.0,188.7,0.05,25.2,25.5,"17:23:12",1
"22/07/12","17:40",0.0,27.9,85.2,997.9,271.5,1.0,1.7,245.8,0.04,25.2,25.4,"17:30:08",1
"22/07/12","17:50",0.0,27.7,85.3,998.9,327.0,1.2,2.4,3.1,0.03,25.0,25.5,"17:46:24",1
"22/07/12","18:00",0.0,27.5,85.6,998.6,300.8,1.2,2.4,251.2,0.01,24.9,25.4,"17:57:52",1
"22/07/12","18:10",0.0,27.4,85.9,998.6,291.9,0.7,1.7,267.5,0.01,24.9,25.6,"18:08:32",1
"22/07/12","18:20",0.0,27.4,86.4,998.6,274.9,1.1,2.1,258.0,0.04,25.0,25.7,"18:12:24",1
"22/07/12","18:30",0.0,27.6,86.6,998.9,263.7,1.0,2.4,242.9,0.04,25.2,25.7,"18:25:12",1
"22/07/12","18:40",0.0,27.6,86.6,998.6,311.7,0.8,1.7,342.4,0.03,25.2,25.8,"18:37:12",1
"22/07/12","18:50",0.0,27.2,86.8,998.4,323.9,1.6,2.8,333.7,0.01,24.8,25.5,"18:43:20",1
"22/07/12","19:00",0.0,27.0,87.3,999.1,326.2,1.3,2.9,340.1,0.01,24.7,25.6,"18:55:20",1
"22/07/12","19:10",0.0,26.7,87.8,998.9,321.2,1.8,2.6,341.2,0.00,24.5,25.7,"19:05:36",1
"22/07/12","19:20",0.0,26.2,88.1,999.3,322.4,2.0,3.3,339.0,0.00,24.1,25.6,"19:17:04",1
"22/07/12","19:30",0.0,26.2,88.4,999.1,306.9,1.0,1.9,319.1,0.00,24.2,25.6,"19:24:24",1
"22/07/12","19:40",0.0,26.1,88.6,999.6,336.0,1.7,3.6,334.2,0.00,24.1,25.8,"19:38:32",1
"22/07/12","19:50",0.0,26.1,89.0,999.1,323.7,1.8,3.4,348.0,0.00,24.2,25.7,"19:46:40",1
"22/07/12","20:00",0.0,25.8,89.5,999.3,333.8,1.7,3.1,347.2,0.00,24.0,25.6,"19:55:28",1
"22/07/12","20:10",0.0,25.6,90.0,999.6,327.8,2.1,4.0,350.7,0.00,23.9,25.8,"20:07:44",1
"22/07/12","20:20",0.0,25.4,90.3,999.6,332.3,2.5,3.7,329.0,0.00,23.7,25.7,"20:14:24",1
"22/07/12","20:30",0.0,25.3,90.6,999.8,328.4,2.3,3.5,328.2,0.00,23.7,25.5,"20:24:48",1
"22/07/12","20:40",0.0,25.1,90.8,1000.0,318.9,2.0,3.5,341.6,0.00,23.5,25.6,"20:31:36",1
"22/07/12","20:50",0.0,24.9,91.0,1000.0,326.9,1.7,2.9,330.5,0.00,23.4,25.7,"20:40:08",1
"22/07/12","21:00",0.0,24.8,91.2,1000.3,326.3,1.3,2.2,342.8,0.00,23.3,25.5,"20:56:00",1
"22/07/12","21:10",0.0,24.6,91.4,1000.0,310.2,1.1,2.1,333.7,0.00,23.1,25.7,"21:05:28",1
"22/07/12","21:20",0.0,24.5,91.4,1000.5,5.8,0.5,1.6,352.4,0.00,23.0,25.5,"21:11:12",1
"22/07/12","21:30",0.0,24.4,91.6,1000.8,333.6,1.2,2.0,323.8,0.00,23.0,25.4,"21:29:28",1
"22/07/12","21:40",0.0,24.3,91.8,1001.0,333.0,1.5,2.5,332.6,0.00,22.9,25.7,"21:37:28",1
"22/07/12","21:50",0.0,24.2,92.0,1000.8,305.4,1.0,1.6,323.9,0.00,22.9,25.6,"21:43:36",1
"22/07/12","22:00",0.0,24.1,92.1,1000.5,339.0,1.0,1.7,351.8,0.00,22.8,25.4,"21:50:16",1
"22/07/12","22:10",0.0,24.1,92.2,1001.2,335.2,0.7,1.2,335.6,0.00,22.8,25.4,"22:00:40",1
"22/07/12","22:20",0.0,23.9,92.3,1001.0,260.2,0.6,1.3,264.7,0.00,22.6,25.5,"22:13:04",1
"22/07/12","22:30",0.0,23.9,92.4,1001.0,345.6,0.2,0.5,268.6,0.00,22.6,25.4,"22:29:20",1
"22/07/12","22:40",0.0,24.0,92.6,1001.2,327.2,1.2,1.7,339.9,0.00,22.8,25.4,"22:33:20",1
"22/07/12","22:50",0.0,23.9,92.7,1001.5,296.6,0.7,1.3,313.2,0.00,22.7,25.3,"22:41:36",1
"22/07/12","23:00",0.0,23.7,92.8,1001.2,313.8,1.0,2.0,321.9,0.00,22.5,25.4,"22:51:44",1
"22/07/12","23:10",0.0,23.5,92.9,1001.5,312.8,1.0,1.8,333.9,0.00,22.3,25.2,"23:03:04",1
"22/07/12","23:20",0.0,23.5,93.1,1001.0,315.3,1.0,1.6,334.1,0.00,22.4,25.5,"23:16:24",1
"22/07/12","23:30",0.0,23.5,93.2,1001.5,340.0,1.1,1.9,355.1,0.00,22.4,25.4,"23:24:24",1
"22/07/12","23:40",0.0,23.3,93.3,1001.2,334.7,1.3,1.8,359.4,0.00,22.2,25.1,"23:31:52",1
"22/07/12","23:50",0.0,23.1,93.4,1001.0,289.3,1.1,1.7,321.2,0.00,22.0,25.4,"23:42:16",1
"22/07/12","24:00",0.0,22.9,93.6,1001.5,317.1,1.2,1.8,339.0,0.00,21.9,25.3,"23:59:52",1
